sat.trackr.live / text

‹ back to catalog

MICE-1

NORAD 66684 · 2025-276U

PAYLOAD ACTIVE UNKNOWN

§ Identity

Operator
Country
GREC
Launch date
2025-11-28
Launch site
AFWTR
Launch vehicle
Mass (kg)
RCS (m²)

External: N2YO · Heavens-Above · Gunter

§ Orbital elements

Epoch: 2026-09-20T22:20:01.709376Z

Period
94.75 min
Inclination
97.4193°
Eccentricity
0.0006036
Mean motion
15.19757647 rev/d
Perigee alt
502.4 km
Apogee alt
510.7 km
Semi-major
6,884.7 km
B*
1.0129e-4
RAAN
335.9593°
Arg perigee
34.9282°
Mean anomaly
325.2348°
Rev number
4,495

§ Raw data

MICE-11 66684U 25276U   26263.93057534  .00002099  00000+0  10129-3 0  99922 66684  97.4193 335.9593 0006036  34.9282 325.2348 15.19757647 44956

JSON: /api/v1/satellites/66684 · /tle

For live sub-satellite position, see the globe view (requires WebGL).

§ Visibility from observer

Set your observer location to see the next 7 days of passes ≥ 10°. The values pass through the URL so the page stays shareable.

No JS? Fill the form by hand. The geolocation button needs JavaScript.